This demonstration page uses our WeatherBlox Daily Observations layout. Learn more.

Left ArrowRight Arrow

Hourly Observations for June 27, 2022

Temp ( °F °C ) Dew Point ( °F °C ) Humidity (%) Winds ( mph kmh ) Pressure ( in mb ) Visibility ( mi km ) Precip ( " mm )
12:53 am 00:53 Clear 77 25 42 5.6 29 29 NNW 5 7 29.92 1013 10 16 0.00 0.00
1:53 am 01:53 Clear 76 24.4 43 6.1 31 31 N 7 11 29.92 1013 10 16 0.00 0.00
2:53 am 02:53 Clear 74 23.3 43 6.1 33 33 N 3 6 29.93 1014 10 16 0.00 0.00
3:53 am 03:53 Clear 70 21.1 44 6.7 39 39 NNW 5 7 29.94 1014 10 16 0.00 0.00
4:53 am 04:53 Clear 69 20.6 46 7.8 44 44 Calm 29.95 1014 10 16 0.00 0.00
5:53 am 05:53 Sunny 66 18.9 46 7.8 49 49 Calm 29.96 1015 10 16 0.00 0.00
6:53 am 06:53 Sunny 69 20.6 47 8.3 45 45 Calm 29.98 1015 10 16 0.00 0.00
7:53 am 07:53 Sunny 77 25 46 7.8 33 33 N 3 6 29.98 1015 10 16 0.00 0.00
8:53 am 08:53 Sunny 82 27.8 47 8.3 29 29 WSW 3 6 29.98 1015 10 16 0.00 0.00
9:53 am 09:53 Sunny 86 30 46 7.8 25 25 W 5 7 29.98 1015 10 16 0.00 0.00
10:53 am 10:53 Sunny 91 32.8 46 7.8 21 21 VRB 3 6 29.98 1015 10 16 0.00 0.00
11:53 am 11:53 Sunny 94 34.4 41 5 16 16 S 6 9 29.97 1015 10 16 0.00 0.00
12:53 pm 12:53 Sunny 98 36.7 37 2.8 12 12 S 12 19 29.96 1015 10 16 0.00 0.00
1:53 pm 13:53 Sunny 100 37.8 31 -0.6 9 9 S 15 24 29.94 1014 10 16 0.00 0.00
2:53 pm 14:53 Sunny 102 38.9 27 -2.8 7 7 S 14 22 29.93 1014 10 16 0.00 0.00
3:53 pm 15:53 Sunny 103 39.4 22 -5.6 5 5 S 20 31 29.91 1013 10 16 0.00 0.00
4:53 pm 16:53 Sunny 103 39.4 25 -3.9 6 6 SSE 16 26 29.88 1012 10 16 0.00 0.00
5:53 pm 17:53 Sunny 103 39.4 32 0 8 8 S 16 26 29.87 1012 10 16 0.00 0.00
6:53 pm 18:53 Sunny 102 38.9 39 3.9 11 11 S 14 22 29.87 1011 10 16 0.00 0.00
7:53 pm 19:53 Sunny 98 36.7 38 3.3 12 12 S 10 17 29.87 1012 10 16 0.00 0.00
8:53 pm 20:53 Clear 93 33.9 40 4.4 16 16 S 7 11 29.88 1012 10 16 0.00 0.00
9:53 pm 21:53 Clear 90 32.2 42 5.6 19 19 SW 5 7 29.89 1012 10 16 0.00 0.00
10:53 pm 22:53 Clear 88 31.1 39 3.9 18 18 WSW 5 7 29.91 1013 10 16 0.00 0.00
11:53 pm 23:53 Clear 84 28.9 37 2.8 19 19 Calm 29.91 1013 10 16 0.00 0.00

Powered by AerisWeather